Location: Newark
(49.1000°N, 0.4667°W)
Time: 10:46:26
(UTC+00:00)

BEESAT 3 - Pass Details

Date: 07 July 2020
Orbit: 482 x 522 km, 64.9° (Epoch: 10 August)

Event Time Altitude Azimuth Distance (km) Brightness Sun altitude
Rises 21:30:22 0° 229° (SW) 2,634 ? -10.4°
Reaches altitude 10° 21:32:34 10° 233° (SW) 1,754 ? -10.6°
Maximum altitude 21:36:26 57° 313° (NW) 623 ? -11.0°
Drops below altitude 10° 21:40:21 10° 33° (NNE) 1,769 ? -11.3°
Sets 21:42:35 0° 37° (NE) 2,660 ? -11.6°
